Regional Weather Roundup
Issued by NWS Boston, MA

Current Version | Previous Version | Text Only | Print | Product List | Glossary On
Versions: 1 2 3 4 5 6 7 8 9 10 11 12 13 14 15 16 17 18 19 20 21 22 23 24 25 26 27 28 29 30 31 32 33 34 35 36 37 38 39 40 41 42 43 44 45 46 47 48 49 50
682
ASUS41 KBOX 231210
RWRBOX

REGIONAL WEATHER ROUNDUP
NATIONAL WEATHER SERVICE TAUNTON MA
800 AM EDT SUN APR 23 2017

NOTE:  "FAIR" INDICATES FEW OR NO CLOUDS BELOW 12,000 FEET WITH NO
SIGNIFICANT WEATHER AND/OR OBSTRUCTIONS TO VISIBILITY.

MAZALL-231300-
EASTERN MASSACHUSETTS

CITY           SKY/WX    TMP DP  RH WIND       PRES   REMARKS
BOSTON         SUNNY     46  37  71 NW12      30.07R
6HR MIN TEMP:  41; 6HR MAX TEMP:  47;

BEVERLY        SUNNY     46  40  79 NW9       30.06R
LAWRENCE       SUNNY     46  39  76 NW5       30.09R
BEDFORD        SUNNY     46  37  71 N8        30.07R
BLUE HILL        N/A     43  37  79 N8        30.05R
NORWOOD        SUNNY     48  39  71 NW3       30.07R
MARSHFIELD     SUNNY     46  39  76 VRB6G14   30.07R
PLYMOUTH       CLOUDY    44  39  82 NW7       30.07R
TAUNTON        CLOUDY    42  39  89 NW3       30.07R
NEW BEDFORD    CLOUDY    44  40  85 VRB3      30.07R
$$

MAZALL-231300-
CAPE COD AND THE ISLANDS

CITY           SKY/WX    TMP DP  RH WIND       PRES   REMARKS
FALMOUTH       CLOUDY    43  39  87 MISG      30.07R
HYANNIS        CLOUDY    45  41  86 N8        30.05R
CHATHAM        MOSUNNY   46  42  86 NW6       30.05R
PROVINCETOWN   CLOUDY    45  42  89 NW8       30.07R
NANTUCKET      CLOUDY    46  40  79 NW12      30.06R
MARTHAS VNYRD  MOSUNNY   46  41  82 N13       30.06R
$$

MAZALL-231300-
CENTRAL AND WESTERN MASSACHUSETTS

CITY           SKY/WX    TMP DP  RH WIND       PRES   REMARKS
WORCESTER      SUNNY     43  32  65 NW13      30.06R
6HR MIN TEMP:  36; 6HR MAX TEMP:  43;

FITCHBURG      SUNNY     48  37  65 N10       30.08R
ORANGE         SUNNY     41  40  96 CALM      30.08R
SPRINGFIELD    MOSUNNY   47  34  60 N5        30.08R
WESTFIELD      SUNNY     46  38  73 NW3       30.10R
NORTH ADAMS    SUNNY     43  35  73 W6        30.10R
PITTSFIELD     SUNNY     42  35  76 W7        30.08R
$$

RIZALL-231300-
RHODE ISLAND

CITY           SKY/WX    TMP DP  RH WIND       PRES   REMARKS
PROVIDENCE     CLOUDY    48  38  68 N10       30.08R
6HR MIN TEMP:  43; 6HR MAX TEMP:  48;

NEWPORT        CLOUDY    46  40  79 NW7       30.07R
BLOCK ISLAND   CLOUDY    46  40  79 NW6       30.08R
SMITHFIELD     SUNNY     46  37  71 N10       30.07R
WESTERLY       MOSUNNY   49  39  68 NW7       30.09R
$$

CTZALL-231300-
CONNECTICUT

CITY           SKY/WX    TMP DP  RH WIND       PRES   REMARKS
BRADLEY INTL   MOSUNNY   48  36  63 NW5       30.10R
6HR MIN TEMP:  39; 6HR MAX TEMP:  48;

HARTFORD       SUNNY     49  36  61 N6        30.10R
BRIDGEPORT     SUNNY     50  37  61 N10       30.11R
DANBURY        SUNNY     46  37  71 N6        30.12R
GROTON         MOSUNNY   49  37  63 N9        30.08R
NEW HAVEN      SUNNY     48  38  68 N9        30.11R
CHESTER        FAIR      48  36  61 N8G15     30.09R
MERIDEN        SUNNY     49  37  63 NW7       30.11R
WILLIMANTIC    SUNNY     49  37  63 VRB3      30.09R
OXFORD         MOSUNNY   45  36  70 N7        30.11R
$$

MEZ002-015-021-024-NHZ003-005-008-011-012-014-VTZ005-008-231300-
NORTHERN NEW ENGLAND

CITY           SKY/WX    TMP DP  RH WIND       PRES   REMARKS
PORTLAND ME    SUNNY     44  38  79 NW9       30.05R
6HR MIN TEMP:  34; 6HR MAX TEMP:  44;

BANGOR ME      CLOUDY    39  36  89 N3        30.02R
CONCORD NH     SUNNY     46  37  71 NW8       30.07R
MANCHESTER NH  SUNNY     46  34  62 NW8       30.06R
NASHUA NH      SUNNY     46  37  71 NW8       30.08R
PORTSMOUTH NH  MOSUNNY   41  41  99 NW6       30.05R
JAFFREY NH     SUNNY     44  37  76 VRB5      30.07R
KEENE NH       SUNNY     39  36  89 CALM      30.10R
BURLINGTON VT  MOSUNNY   43  38  82 CALM      30.09R
MT. WASHINGTON MOSUNNY   30  16  55 NW47        N/A  WCI  12
$$

NYZ052-076-231300-
EASTERN NEW YORK

CITY           SKY/WX    TMP DP  RH WIND       PRES   REMARKS
ALBANY         MOSUNNY   44  35  70 CALM      30.13R
6HR MIN TEMP:  35; 6HR MAX TEMP:  44;

NEW YORK CITY  MOSUNNY   51  35  54 NE6       30.12R
6HR MIN TEMP:  48; 6HR MAX TEMP:  51;

$$

ANZALL-231300-
MARINE OBSERVATIONS

STATION/POSITION TIME  TEMP    WIND        PRES    VSBY  WAVE
                       AIR SEA DIR/SP/G                  HT/PER
                 (UTC) (F)     (DEG/KT/KT) (MB)    (MI)  (FT/S)
BOSTON BUOY      1050   44 45  320/  8/ 10 1016.2          5/ 8
BUZZARDS BAY     1100   45     330/ 10/ 10 1018.1R
NANTUCKET SOUND  1150      48              1017.6R         1/ 7
MASS BAY-STELLWA 1104   43 45  310/ 10/ 12 1016.1R         5/ 8
ISLE OF SHOALS   1100   40     290/  4/  5 1017.0R
S OF BLOCK IS    1125      46                N/A           3/11
$$

......................KEY.........................
  SKY/WX - SKY CONDITION/PRESENT WEATHER
  TMP    - TEMPERATURE IN FAHRENHEIT
  DWPT   - DEWPOINT IN FAHRENHEIT
  RH     - RELATIVE HUMIDITY IN PERCENT
  WIND   - DIRECTION AND SPEED IN MPH
  PRES   - MEAN SEA LEVEL PRESSURE IN INCHES OF HG
  WCI    - WIND CHILL INDEX
  VSB    - VISIBILITY IN MILES
  HX     - HEAT INDEX
  TC     - TEMPERATURE IN CELSIUS
  VRB    - VARIABLE WIND DIRECTION
  N/A    - NOT AVAILABLE




USA.gov is the U.S. government's official web portal to all federal, state and local government web resources and services.